Time,TemperatureF,DewpointF,PressureIn,WindDirection,WindDirectionDegrees,WindSpeedMPH,WindSpeedGustMPH,Humidity,HourlyPrecipIn,Conditions,Clouds,dailyrainin,SolarRadiationWatts/m^2,SoftwareType,DateUTC
2013-07-16 12:22:00,80.0,50.0,-100.00,SSE,165,3.0,6.0,35,-99.99,,,0.00,477.000000,,2013-07-16 18:22:00,
2013-07-16 12:32:00,80.0,50.0,-100.00,SSE,165,3.0,6.0,35,-99.99,,,0.00,477.000000,,2013-07-16 18:32:00,
2013-07-16 12:43:00,80.0,50.0,-100.00,SSE,165,3.0,6.0,35,-99.99,,,0.00,477.000000,,2013-07-16 18:43:00,
2013-07-16 13:11:00,72.0,52.0,-100.00,NNW,346,1.0,4.0,50,-99.99,,,0.00,145.000000,,2013-07-16 19:11:00,
2013-07-16 13:22:00,72.0,52.0,-100.00,NNW,346,1.0,4.0,50,-99.99,,,0.00,145.000000,,2013-07-16 19:22:00,
2013-07-16 13:32:00,72.0,52.0,-100.00,NNW,346,1.0,4.0,50,-99.99,,,0.00,145.000000,,2013-07-16 19:32:00,
2013-07-16 13:43:00,72.0,52.0,-100.00,NNW,346,1.0,4.0,50,-99.99,,,0.00,145.000000,,2013-07-16 19:43:00,
2013-07-16 14:11:00,75.0,52.0,-100.00,NNE,33,2.0,5.0,44,0.00,,,0.00,217.000000,,2013-07-16 20:11:00,
2013-07-16 14:22:00,75.0,52.0,-100.00,NNE,33,2.0,5.0,44,0.00,,,0.00,217.000000,,2013-07-16 20:22:00,
2013-07-16 14:32:00,75.0,52.0,-100.00,NNE,33,2.0,5.0,44,0.00,,,0.00,217.000000,,2013-07-16 20:32:00,
2013-07-16 14:43:00,75.0,52.0,-100.00,NNE,33,2.0,5.0,44,0.00,,,0.00,217.000000,,2013-07-16 20:43:00,
2013-07-16 15:22:00,77.0,52.0,-100.00,NE,47,3.0,7.0,42,0.00,,,0.00,331.000000,,2013-07-16 21:22:00,
2013-07-16 15:32:00,77.0,52.0,-100.00,NE,47,3.0,7.0,42,0.00,,,0.00,331.000000,,2013-07-16 21:32:00,
2013-07-16 15:43:00,77.0,52.0,-100.00,NE,47,3.0,7.0,42,0.00,,,0.00,331.000000,,2013-07-16 21:43:00,
2013-07-16 16:22:00,78.0,54.0,-100.00,NNE,23,3.0,10.0,43,0.00,,,0.00,388.000000,,2013-07-16 22:22:00,
2013-07-16 16:33:00,78.0,54.0,-100.00,NNE,23,3.0,10.0,43,0.00,,,0.00,388.000000,,2013-07-16 22:33:00,
2013-07-16 16:43:00,78.0,54.0,-100.00,NNE,23,3.0,10.0,43,0.00,,,0.00,388.000000,,2013-07-16 22:43:00,
2013-07-16 17:22:00,83.0,52.0,-100.00,ENE,57,4.0,12.0,34,0.00,,,0.00,577.000000,,2013-07-16 23:22:00,
2013-07-16 17:32:00,83.0,52.0,-100.00,ENE,57,4.0,12.0,34,0.00,,,0.00,577.000000,,2013-07-16 23:32:00,
2013-07-16 17:42:00,83.0,52.0,-100.00,ENE,57,4.0,12.0,34,0.00,,,0.00,577.000000,,2013-07-16 23:42:00,
2013-07-16 18:11:00,80.0,53.0,-100.00,ENE,75,4.0,13.0,39,0.00,,,0.00,503.000000,,2013-07-17 00:11:00,
2013-07-16 18:22:00,80.0,53.0,-100.00,ENE,75,4.0,13.0,39,0.00,,,0.00,503.000000,,2013-07-17 00:22:00,
2013-07-16 18:33:00,80.0,53.0,-100.00,ENE,75,4.0,13.0,39,0.00,,,0.00,503.000000,,2013-07-17 00:33:00,
2013-07-16 18:42:00,80.0,53.0,-100.00,ENE,75,4.0,13.0,39,0.00,,,0.00,503.000000,,2013-07-17 00:42:00,
2013-07-16 19:11:00,75.0,53.0,-100.00,ENE,78,3.0,11.0,46,0.00,,,0.00,146.000000,,2013-07-17 01:11:00,
2013-07-16 19:22:00,75.0,53.0,-100.00,ENE,78,3.0,11.0,46,0.00,,,0.00,146.000000,,2013-07-17 01:22:00,
2013-07-16 19:32:00,75.0,53.0,-100.00,ENE,78,3.0,11.0,46,0.00,,,0.00,146.000000,,2013-07-17 01:32:00,
2013-07-16 19:42:00,75.0,53.0,-100.00,ENE,78,3.0,11.0,46,0.00,,,0.00,146.000000,,2013-07-17 01:42:00,
2013-07-16 20:11:00,72.0,51.0,-100.00,ENE,65,2.0,8.0,47,0.00,,,0.00,47.000000,,2013-07-17 02:11:00,
2013-07-16 20:22:00,72.0,51.0,-100.00,ENE,65,2.0,8.0,47,0.00,,,0.00,47.000000,,2013-07-17 02:22:00,
2013-07-16 20:32:00,72.0,51.0,-100.00,ENE,65,2.0,8.0,47,0.00,,,0.00,47.000000,,2013-07-17 02:32:00,
2013-07-16 20:43:00,72.0,51.0,-100.00,ENE,65,2.0,8.0,47,0.00,,,0.00,47.000000,,2013-07-17 02:43:00,
2013-07-16 21:22:00,69.0,50.0,-100.00,ENE,70,3.0,9.0,51,0.00,,,0.00,6.000000,,2013-07-17 03:22:00,
2013-07-16 21:32:00,69.0,50.0,-100.00,ENE,70,3.0,9.0,51,0.00,,,0.00,6.000000,,2013-07-17 03:32:00,
2013-07-16 21:43:00,69.0,50.0,-100.00,ENE,70,3.0,9.0,51,0.00,,,0.00,6.000000,,2013-07-17 03:43:00,
2013-07-16 22:11:00,68.0,51.0,-100.00,NE,55,4.0,9.0,54,0.00,,,-99.99,1.000000,,2013-07-17 04:11:00,
2013-07-16 22:22:00,68.0,51.0,-100.00,NE,55,4.0,9.0,54,0.00,,,-99.99,1.000000,,2013-07-17 04:22:00,
2013-07-16 22:32:00,68.0,51.0,-100.00,NE,55,4.0,9.0,54,0.00,,,-99.99,1.000000,,2013-07-17 04:32:00,
2013-07-16 22:43:00,68.0,51.0,-100.00,NE,55,4.0,9.0,54,0.00,,,-99.99,1.000000,,2013-07-17 04:43:00,
2013-07-16 23:11:00,67.0,50.0,-100.00,ENE,58,3.0,7.0,55,0.00,,,-99.99,0.000000,,2013-07-17 05:11:00,
2013-07-16 23:21:00,67.0,50.0,-100.00,ENE,58,3.0,7.0,55,0.00,,,-99.99,0.000000,,2013-07-17 05:21:00,
2013-07-16 23:32:00,67.0,50.0,-100.00,ENE,58,3.0,7.0,55,0.00,,,-99.99,0.000000,,2013-07-17 05:32:00,
2013-07-16 23:43:00,67.0,50.0,-100.00,ENE,58,3.0,7.0,55,0.00,,,-99.99,0.000000,,2013-07-17 05:43:00,